FW9917 Weather Reports


Display with metric or nautical units.
time (UTC)temp
F
wind
direction
speed
MPH
gust
MPH
rain 1hr
in
rain 24hr
in
rain mn
in
humidity
%
barometer
mb
20260504234555 40 0 0.0 6.0 0.02 0.39 0.38 94 1013.9
20260504234056 40 315 0.0 4.0 0.02 0.38 0.37 94 1014.0
20260504233558 41 0 0.0 2.0 0.02 0.38 0.37 94 1013.9
20260504233109 41 0 0.0 3.0 0.03 0.38 0.37 94 1013.8
20260504232557 41 0 0.0 3.0 0.05 0.38 0.37 94 1013.6
20260504232056 41 312 0.0 2.0 0.06 0.38 0.37 95 1013.5
20260504231601 41 0 0.0 2.0 0.08 0.38 0.37 94 1013.6
20260504231056 41 0 0.0 2.0 0.09 0.38 0.37 94 1013.7
20260504230556 41 0 0.0 2.0 0.11 0.38 0.37 95 1013.7
20260504230057 41 296 0.0 2.0 0.11 0.37 0.36 95 1013.7
20260504225557 41 0 0.0 1.0 0.12 0.43 0.36 95 1014.0
20260504225057 41 0 0.0 2.0 0.12 0.43 0.36 95 1014.1
20260504224602 40 0 0.0 2.0 0.13 0.43 0.36 94 1014.0
20260504224057 41 0 0.0 2.0 0.12 0.42 0.35 94 1014.0
20260504223557 41 0 0.0 2.0 0.13 0.42 0.35 94 1014.1
20260504223129 41 207 0.0 2.0 0.12 0.41 0.34 94 1014.2
20260504222556 41 0 0.0 1.0 0.10 0.39 0.32 94 1014.1
20260504222057 41 0 0.0 2.0 0.10 0.38 0.31 93 1014.3
20260504221556 41 0 0.0 2.0 0.08 0.36 0.29 93 1014.5
20260504221100 41 0 0.0 1.0 0.08 0.35 0.28 94 1014.4
20260504220556 42 0 0.0 1.0 0.06 0.33 0.26 94 1014.4
20260504220057 42 0 0.0 1.0 0.06 0.32 0.25 94 1014.4
20260504215557 42 0 0.0 1.0 0.07 0.35 0.24 94 1014.2
20260504215057 42 0 0.0 1.0 0.08 0.35 0.24 94 1014.4
20260504214554 42 0 0.0 1.0 0.07 0.34 0.23 95 1014.4
20260504214057 42 0 0.0 1.0 0.07 0.34 0.23 95 1014.2
20260504213556 42 158 0.0 1.0 0.06 0.33 0.22 94 1014.4
20260504213105 42 0 0.0 0.0 0.06 0.33 0.22 93 1014.4
20260504212556 42 0 0.0 0.0 0.06 0.33 0.22 93 1014.4
20260504212056 42 0 0.0 1.0 0.06 0.32 0.21 93 1014.4
20260504211600 42 0 0.0 1.0 0.07 0.32 0.21 93 1014.2
20260504211057 42 0 0.0 1.0 0.07 0.31 0.20 93 1014.2
20260504210559 42 0 0.0 1.0 0.09 0.31 0.20 93 1014.2
20260504210101 42 0 0.0 1.0 0.09 0.30 0.19 93 1014.3
20260504205601 42 0 0.0 2.0 0.09 0.28 0.17 93 1014.2
20260504205056 42 0 0.0 2.0 0.10 0.27 0.16 91 1014.2
20260504204556 42 0 0.0 2.0 0.10 0.27 0.16 91 1014.3
20260504204057 42 0 0.0 1.0 0.11 0.27 0.16 92 1014.3
20260504203556 42 0 0.0 1.0 0.12 0.27 0.16 91 1014.2
20260504203109 42 0 0.0 1.0 0.13 0.27 0.16 92 1014.4
20260504202556 42 0 0.0 1.0 0.13 0.26 0.15 92 1014.5
20260504202057 42 0 0.0 1.0 0.14 0.26 0.15 90 1014.6
20260504201559 42 0 0.0 0.0 0.13 0.25 0.14 92 1014.6
20260504201056 42 0 0.0 3.0 0.13 0.24 0.13 91 1014.6
20260504200556 42 0 0.0 3.0 0.11 0.22 0.11 90 1014.6
20260504200120 43 0 0.0 3.0 0.09 0.20 0.09 90 1014.7
20260504195555 43 0 0.0 2.0 0.08 0.19 0.08 92 1014.8
20260504195056 43 0 0.0 2.0 0.06 0.17 0.06 91 1014.7
20260504194554 43 0 0.0 1.0 0.05 0.16 0.05 91 1014.6
20260504194057 43 0 0.0 1.0 0.05 0.16 0.05 89 1014.6
20260504193557 44 261 0.0 1.0 0.03 0.14 0.03 90 1014.5
20260504193056 44 0 0.0 1.0 0.03 0.14 0.03 90 1014.5
20260504192556 44 0 0.0 1.0 0.02 0.13 0.02 89 1014.4
20260504192056 44 0 0.0 1.0 0.01 0.12 0.01 88 1014.5
20260504191601 44 0 0.0 1.0 0.01 0.12 0.01 88 1014.6
20260504191056 44 0 0.0 1.0 0.00 0.11 0.00 87 1014.5
20260504190556 44 0 0.0 2.0 0.00 0.11 0.00 87 1014.5
20260504190057 44 0 0.0 2.0 0.00 0.11 0.00 86 1014.4
20260504185556 44 0 0.0 2.0 0.00 0.11 0.00 85 1014.4
20260504185057 45 0 0.0 2.0 0.00 0.11 0.00 84 1014.5
20260504184558 45 0 0.0 2.0 0.00 0.11 0.00 83 1014.6
20260504184057 45 246 0.0 2.0 0.00 0.11 0.00 83 1014.5
20260504183557 45 300 0.0 1.0 0.00 0.11 0.00 83 1014.6
20260504183055 45 0 0.0 1.0 0.00 0.11 0.00 82 1014.5
20260504182555 45 0 0.0 2.0 0.00 0.11 0.00 82 1014.5
20260504182056 45 0 0.0 2.0 0.00 0.11 0.00 82 1014.4
20260504181557 45 0 0.0 2.0 0.00 0.11 0.00 81 1014.5
20260504181057 45 291 0.0 2.0 0.00 0.11 0.00 82 1014.5
20260504180557 45 325 0.0 2.0 0.00 0.11 0.00 80 1014.6
20260504180056 45 0 0.0 3.0 0.00 0.11 0.00 81 1014.5
20260504175556 45 0 0.0 3.0 0.00 0.11 0.00 79 1014.5
20260504175056 45 325 0.0 3.0 0.00 0.11 0.00 79 1014.4
20260504174613 45 0 0.0 2.0 0.00 0.11 0.00 79 1014.3
20260504174056 46 0 0.0 3.0 0.00 0.11 0.00 82 1014.3
20260504173556 46 0 0.0 3.0 0.00 0.11 0.00 81 1014.3
20260504173055 46 257 0.0 2.0 0.00 0.11 0.00 84 1014.2
20260504172556 46 0 0.0 3.0 0.00 0.11 0.00 85 1014.2
20260504172057 45 0 0.0 3.0 0.00 0.11 0.00 85 1014.2
20260504171559 45 0 0.0 0.0 0.00 0.11 0.00 85 1014.1
20260504171057 45 0 0.0 2.0 0.00 0.11 0.00 86 1014.1
20260504170557 45 0 0.0 2.0 0.00 0.11 0.00 84 1014.0
20260504170103 45 0 0.0 2.0 0.00 0.11 0.00 85 1014.0
20260504160104 45 0 0.0 2.0 0.00 0.11 0.00 82 1014.0
20260504151056 43 0 0.0 2.0 0.00 0.11 0.00 87 1013.9
20260504150556 43 0 0.0 2.0 0.00 0.11 0.00 87 1013.9
20260504150106 43 0 0.0 3.0 0.00 0.11 0.00 89 1013.9
20260504141056 39 0 0.0 0.0 0.00 0.11 0.00 94 1013.8
20260504140556 39 0 0.0 0.0 0.00 0.11 0.00 94 1013.7
20260504130556 39 0 0.0 0.0 0.00 0.11 0.00 93 1013.7
20260504110559 40 0 0.0 0.0 0.00 0.11 0.00 93 1014.1
20260504110303 40 0 0.0 0.0 0.00 0.11 0.00 93 1014.1
20260504100556 39 0 0.0 0.0 0.00 0.11 0.00 94 1014.2
20260504090104 40 0 0.0 0.0 0.00 0.11 0.00 93 1014.6
20260504081557 40 0 0.0 0.0 0.00 0.11 0.00 93 1015.1
20260504081057 40 0 0.0 0.0 0.00 0.11 0.00 93 1015.1
20260504080600 40 0 0.0 0.0 0.00 0.11 0.00 93 1015.1
20260504050556 40 0 0.0 3.0 0.00 0.11 0.11 92 1015.3
20260504050106 40 0 0.0 3.0 0.00 0.11 0.11 92 1015.3
20260504045556 40 0 0.0 0.0 0.00 0.11 0.11 92 1015.4
20260504045056 40 0 0.0 0.0 0.00 0.11 0.11 91 1015.4
20260504044605 40 0 0.0 2.0 0.00 0.11 0.11 92 1015.5
20260504044057 40 0 0.0 2.0 0.00 0.11 0.11 91 1015.4
20260504043558 40 88 0.0 2.0 0.00 0.11 0.11 91 1015.4
20260504043059 40 84 0.0 1.0 0.00 0.11 0.11 91 1015.4
20260504042557 41 0 0.0 1.0 0.00 0.11 0.11 92 1015.4
20260504042056 41 0 0.0 1.0 0.00 0.11 0.11 92 1015.4
20260504041556 41 0 0.0 1.0 0.00 0.11 0.11 92 1015.3
20260504041056 41 0 0.0 2.0 0.00 0.11 0.11 91 1015.3
20260504040556 41 0 0.0 2.0 0.00 0.11 0.11 92 1015.3
20260504040117 41 0 0.0 1.0 0.00 0.11 0.11 91 1015.2
20260504035556 41 0 0.0 2.0 0.00 0.11 0.11 91 1015.1
20260504035056 41 0 0.0 2.0 0.00 0.11 0.11 91 1015.1
20260504034622 41 0 0.0 1.0 0.00 0.11 0.11 91 1015.0
20260504034056 42 115 0.0 1.0 0.00 0.11 0.11 90 1015.1
20260504033557 42 0 0.0 1.0 0.00 0.11 0.11 91 1015.0
20260504033057 42 0 0.0 1.0 0.00 0.11 0.11 91 1015.1
20260504032557 42 0 0.0 1.0 0.00 0.11 0.11 91 1015.2
20260504032056 43 0 0.0 1.0 0.00 0.11 0.11 91 1014.9
20260504031558 43 0 0.0 1.0 0.00 0.11 0.11 91 1014.9
20260504031056 43 115 0.0 1.0 0.00 0.11 0.11 90 1014.9
20260504030556 43 0 0.0 1.0 0.00 0.11 0.11 89 1014.8
20260504030120 43 0 0.0 1.0 0.00 0.11 0.11 90 1014.9
20260504025556 43 0 0.0 1.0 0.00 0.11 0.11 90 1015.0
20260504025057 43 0 0.0 1.0 0.00 0.11 0.11 90 1015.0
20260504024602 43 0 0.0 2.0 0.00 0.11 0.11 90 1014.9
20260504024056 43 0 0.0 2.0 0.00 0.11 0.11 89 1014.8
20260504023557 44 0 0.0 2.0 0.00 0.11 0.11 89 1014.7
20260504023100 44 0 0.0 1.0 0.00 0.11 0.11 89 1014.6
20260504022554 44 0 0.0 1.0 0.00 0.11 0.11 88 1014.8
20260504022056 45 0 0.0 1.0 0.00 0.11 0.11 88 1015.0
20260504021557 45 0 0.0 1.0 0.00 0.11 0.11 89 1015.1
20260504021059 45 0 0.0 0.0 0.00 0.11 0.11 88 1015.2
20260504020556 45 0 0.0 0.0 0.00 0.11 0.11 87 1015.2
20260504020107 45 0 0.0 0.0 0.00 0.11 0.11 87 1015.2
20260504015557 45 0 0.0 0.0 0.00 0.11 0.11 86 1015.1
20260504015057 46 0 0.0 0.0 0.00 0.11 0.11 86 1015.2
20260504014608 46 0 0.0 0.0 0.00 0.11 0.11 86 1015.2
20260504014056 46 0 0.0 0.0 0.00 0.11 0.11 87 1015.2
20260504013556 46 0 0.0 0.0 0.00 0.11 0.11 86 1015.1
20260504013058 46 0 0.0 0.0 0.00 0.11 0.11 86 1015.1
20260504012556 46 0 0.0 0.0 0.00 0.11 0.11 84 1015.1
20260504012057 46 0 0.0 1.0 0.00 0.11 0.11 87 1015.0
20260504011557 46 0 0.0 1.0 0.00 0.11 0.11 86 1015.1
20260504011056 45 0 0.0 1.0 0.00 0.11 0.11 89 1015.2
20260504010556 45 0 0.0 1.0 0.00 0.11 0.11 88 1015.1
20260504010059 45 0 0.0 1.0 0.00 0.11 0.11 87 1015.1
20260504005557 45 0 0.0 1.0 0.00 0.11 0.11 84 1015.1
20260504005100 45 0 0.0 0.0 0.00 0.11 0.11 85 1015.2
20260504004606 45 0 0.0 2.0 0.00 0.11 0.11 87 1015.1
20260504004057 45 0 0.0 2.0 0.00 0.11 0.11 87 1015.0
20260504003557 45 0 0.0 2.0 0.00 0.11 0.11 88 1015.2
20260504003056 45 0 0.0 2.0 0.01 0.11 0.11 88 1014.9
20260504002556 45 0 0.0 1.0 0.01 0.11 0.11 90 1015.0
20260504002056 44 0 0.0 1.0 0.01 0.11 0.11 88 1015.2
20260504001606 44 0 0.0 1.0 0.01 0.11 0.11 89 1015.2
20260504001056 44 0 0.0 1.0 0.01 0.11 0.11 90 1015.2
20260504000556 44 0 0.0 2.0 0.01 0.11 0.11 91 1015.2
20260504000059 43 147 0.0 2.0 0.01 0.11 0.11 91 1015.3
20260503235557 43 148 0.0 2.0 0.01 0.11 0.11 91 1015.4
20260503235058 43 0 0.0 0.0 0.01 0.11 0.11 89 1015.6